Powrót do katalogu

STARLINK-36174

AktywnyŁącznośćVLEO
NORAD 67166·PAYLOAD·🇺🇸 United States

Wystrzelony Dec 17, 2025 z Cape Canaveral Space Force Station

Loading…

Następne Przeloty (najbliższe 24 godziny)

TLE

ŚwieżeSource: CelesTrak SupGP

Epoka: Sep 14, 2026, 23:22 UTC

1 67166C 25303D   26257.97409722  .00007352  00000+0  26633-3 0  2577
2 67166  43.0030 321.5901 0001383 268.1175 158.4474 15.27571978    10

Śledź STARLINK-36174 w czasie rzeczywistym z AllMySat

Download on the App Store